• In Portugal
  • List of Countries
  • For 7 days
  • Water Temperature
  • Satellite Maps
  • Weather Map
  • Weather Widgets
  • user-avatar
    Login

    Hourly Weather Bytowko

    Today, 19 August, Sunday

    Time Temperature Precipitation Wind Pressure Humidity
    00:00 +18°C° 0 mm 1 mps 752 mmHg 76%
    01:00 +17°C° 0 mm 2 mps 752 mmHg 80%
    02:00 +16°C° 0 mm 2 mps 752 mmHg 82%
    03:00 +16°C° 0 mm 2 mps 752 mmHg 85%
    04:00 +16°C° 0 mm 2 mps 752 mmHg 87%
    05:00 +17°C° 0 mm 2 mps 752 mmHg 82%
    06:00 +19°C° 0 mm 2 mps 752 mmHg 77%
    07:00 +20°C° 0 mm 2 mps 752 mmHg 73%
    08:00 +21°C° 0 mm 3 mps 752 mmHg 64%
    09:00 +24°C° 0 mm 3 mps 752 mmHg 55%
    10:00 +26°C° 0 mm 3 mps 752 mmHg 46%
    11:00 +26°C° 0 mm 3 mps 752 mmHg 45%
    12:00 +27°C° 0 mm 3 mps 752 mmHg 45%
    13:00 +27°C° 0 mm 3 mps 752 mmHg 44%
    14:00 +27°C° 0 mm 3 mps 751 mmHg 45%
    15:00 +27°C° 0 mm 3 mps 751 mmHg 46%
    16:00 +27°C° 0 mm 2 mps 751 mmHg 47%
    17:00 +25°C° 0 mm 2 mps 750 mmHg 53%
    18:00 +24°C° 0 mm 1 mps 750 mmHg 60%
    19:00 +22°C° 0 mm 1 mps 750 mmHg 67%
    20:00 +22°C° 0 mm 1 mps 750 mmHg 70%
    21:00 +21°C° 0 mm 1 mps 750 mmHg 73%
    22:00 +20°C° 0 mm 1 mps 749 mmHg 76%
    23:00 +19°C° 0 mm 2 mps 749 mmHg 74%

    Tomorrow, 20 August, Monday

    Time Temperature Precipitation Wind Pressure Humidity
    00:00 +19°C° 0 mm 2 mps 749 mmHg 72%
    01:00 +19°C° 0 mm 2 mps 748 mmHg 71%
    02:00 +19°C° 0 mm 2 mps 748 mmHg 68%
    03:00 +19°C° 0 mm 3 mps 748 mmHg 65%
    04:00 +19°C° 0 mm 3 mps 747 mmHg 62%
    05:00 +19°C° 0 mm 3 mps 747 mmHg 61%
    06:00 +20°C° 0 mm 4 mps 747 mmHg 61%
    07:00 +21°C° 0 mm 4 mps 747 mmHg 61%
    08:00 +22°C° 0 mm 4 mps 747 mmHg 60%
    09:00 +23°C° 0 mm 5 mps 747 mmHg 58%
    10:00 +26°C° 0 mm 5 mps 747 mmHg 57%
    11:00 +25°C° 0.1 mm 5 mps 747 mmHg 59%
    12:00 +24°C° 0.1 mm 6 mps 747 mmHg 61%
    13:00 +24°C° 0.1 mm 6 mps 747 mmHg 63%
    14:00 +23°C° 0.1 mm 6 mps 747 mmHg 67%
    15:00 +22°C° 0.1 mm 5 mps 747 mmHg 71%
    16:00 +22°C° 0.1 mm 5 mps 747 mmHg 74%
    17:00 +21°C° 0.1 mm 5 mps 747 mmHg 76%
    18:00 +20°C° 0.1 mm 5 mps 747 mmHg 78%
    19:00 +20°C° 0.1 mm 4 mps 747 mmHg 80%
    20:00 +19°C° 0 mm 4 mps 747 mmHg 79%
    21:00 +18°C° 0 mm 4 mps 747 mmHg 78%
    22:00 +17°C° 0 mm 4 mps 747 mmHg 77%
    23:00 +17°C° 0 mm 4 mps 748 mmHg 76%

    Day after tomorrow, 21 August, Tuesday

    Time Temperature Precipitation Wind Pressure Humidity
    00:00 +15°C° 0 mm 4 mps 748 mmHg 76%
    01:00 +15°C° 0 mm 4 mps 748 mmHg 75%
    02:00 +14°C° 0 mm 4 mps 748 mmHg 76%
    03:00 +14°C° 0 mm 4 mps 749 mmHg 77%
    04:00 +14°C° 0 mm 3 mps 749 mmHg 78%
    05:00 +15°C° 0 mm 4 mps 749 mmHg 75%
    06:00 +17°C° 0 mm 4 mps 750 mmHg 71%
    07:00 +18°C° 0 mm 4 mps 751 mmHg 68%
    08:00 +19°C° 0 mm 4 mps 751 mmHg 62%
    09:00 +20°C° 0 mm 4 mps 751 mmHg 56%
    10:00 +21°C° 0 mm 4 mps 752 mmHg 51%
    11:00 +22°C° 0 mm 4 mps 752 mmHg 48%
    12:00 +22°C° 0 mm 4 mps 752 mmHg 45%
    13:00 +23°C° 0 mm 4 mps 752 mmHg 43%
    14:00 +23°C° 0 mm 4 mps 752 mmHg 43%
    15:00 +22°C° 0 mm 3 mps 752 mmHg 44%
    16:00 +22°C° 0 mm 3 mps 752 mmHg 45%
    17:00 +20°C° 0 mm 3 mps 752 mmHg 52%
    18:00 +19°C° 0 mm 2 mps 753 mmHg 59%
    19:00 +17°C° 0 mm 2 mps 753 mmHg 66%
    20:00 +16°C° 0 mm 2 mps 753 mmHg 71%
    21:00 +15°C° 0 mm 1 mps 753 mmHg 75%
    22:00 +14°C° 0 mm 1 mps 753 mmHg 80%
    23:00 +14°C° 0 mm 1 mps 754 mmHg 83%

    22 August, Wednesday

    Time Temperature Precipitation Wind Pressure Humidity
    00:00 +14°C° 0 mm 1 mps 754 mmHg 85%
    01:00 +13°C° 0 mm 1 mps 754 mmHg 88%
    02:00 +13°C° 0 mm 1 mps 754 mmHg 89%
    03:00 +13°C° 0 mm 2 mps 754 mmHg 90%
    04:00 +13°C° 0 mm 2 mps 754 mmHg 92%
    05:00 +14°C° 0 mm 2 mps 754 mmHg 86%
    06:00 +15°C° 0 mm 2 mps 754 mmHg 80%
    07:00 +16°C° 0 mm 3 mps 754 mmHg 74%
    08:00 +18°C° 0 mm 3 mps 754 mmHg 67%
    09:00 +20°C° 0 mm 3 mps 754 mmHg 60%
    10:00 +22°C° 0 mm 3 mps 754 mmHg 52%
    11:00 +24°C° 0 mm 3 mps 754 mmHg 49%
    12:00 +25°C° 0 mm 3 mps 753 mmHg 45%
    13:00 +26°C° 0 mm 3 mps 753 mmHg 41%
    14:00 +26°C° 0 mm 3 mps 752 mmHg 41%
    15:00 +26°C° 0 mm 3 mps 752 mmHg 41%
    16:00 +27°C° 0 mm 3 mps 751 mmHg 40%
    17:00 +25°C° 0 mm 2 mps 751 mmHg 46%
    18:00 +23°C° 0 mm 2 mps 751 mmHg 52%
    19:00 +21°C° 0 mm 2 mps 751 mmHg 58%
    20:00 +20°C° 0 mm 2 mps 750 mmHg 59%
    21:00 +19°C° 0 mm 2 mps 750 mmHg 61%
    22:00 +18°C° 0 mm 3 mps 750 mmHg 62%
    23:00 +18°C° 0 mm 3 mps 750 mmHg 61%

    23 August, Thursday

    Time Temperature Precipitation Wind Pressure Humidity
    00:00 +18°C° 0 mm 3 mps 750 mmHg 60%
    01:00 +18°C° 0 mm 3 mps 750 mmHg 59%
    02:00 +19°C° 0 mm 3 mps 749 mmHg 59%
    03:00 +19°C° 0 mm 3 mps 749 mmHg 58%
    04:00 +19°C° 0 mm 3 mps 749 mmHg 57%
    05:00 +19°C° 0 mm 3 mps 749 mmHg 59%
    06:00 +19°C° 0 mm 3 mps 748 mmHg 62%
    07:00 +19°C° 0 mm 3 mps 748 mmHg 65%
    08:00 +20°C° 0.1 mm 3 mps 748 mmHg 66%
    09:00 +20°C° 0.1 mm 3 mps 748 mmHg 67%
    10:00 +21°C° 0.1 mm 3 mps 748 mmHg 68%
    11:00 +22°C° 0 mm 3 mps 748 mmHg 63%
    12:00 +25°C° 0 mm 3 mps 748 mmHg 58%
    13:00 +26°C° 0 mm 3 mps 748 mmHg 52%
    14:00 +27°C° 0 mm 3 mps 747 mmHg 52%
    15:00 +27°C° 0 mm 2 mps 747 mmHg 51%
    16:00 +27°C° 0 mm 2 mps 747 mmHg 51%
    17:00 +26°C° 0 mm 2 mps 746 mmHg 55%
    18:00 +25°C° 0 mm 2 mps 746 mmHg 59%
    19:00 +24°C° 0 mm 1 mps 746 mmHg 64%
    20:00 +23°C° 0 mm 2 mps 745 mmHg 65%
    21:00 +23°C° 0 mm 2 mps 745 mmHg 67%
    22:00 +21°C° 0 mm 2 mps 745 mmHg 69%
    23:00 +21°C° 0 mm 2 mps 745 mmHg 67%

    24 August, Friday

    Time Temperature Precipitation Wind Pressure Humidity
    00:00 +21°C° 0 mm 3 mps 744 mmHg 65%
    01:00 +21°C° 0 mm 3 mps 744 mmHg 63%
    02:00 +21°C° 0 mm 3 mps 744 mmHg 65%
    03:00 +21°C° 0 mm 3 mps 743 mmHg 66%
    04:00 +20°C° 0 mm 3 mps 743 mmHg 68%
    05:00 +20°C° 0.1 mm 3 mps 743 mmHg 70%
    06:00 +21°C° 0.1 mm 3 mps 742 mmHg 71%
    07:00 +21°C° 0.1 mm 3 mps 742 mmHg 73%
    08:00 +24°C° 0.1 mm 3 mps 742 mmHg 69%
    09:00 +26°C° 0.1 mm 3 mps 742 mmHg 65%
    10:00 +27°C° 0.1 mm 3 mps 742 mmHg 61%
    11:00 +28°C° 0.7 mm 3 mps 742 mmHg 58%
    12:00 +29°C° 0.7 mm 3 mps 741 mmHg 56%
    13:00 +29°C° 0.7 mm 3 mps 741 mmHg 53%
    14:00 +29°C° 0.1 mm 3 mps 741 mmHg 52%
    15:00 +30°C° 0.1 mm 3 mps 741 mmHg 52%
    16:00 +30°C° 0.1 mm 3 mps 741 mmHg 51%
    17:00 +28°C° 0.3 mm 3 mps 741 mmHg 58%
    18:00 +26°C° 0.3 mm 2 mps 741 mmHg 65%
    19:00 +24°C° 0.3 mm 2 mps 740 mmHg 72%
    20:00 +23°C° 0.7 mm 2 mps 741 mmHg 77%
    21:00 +21°C° 0.7 mm 3 mps 741 mmHg 82%
    22:00 +20°C° 0.7 mm 3 mps 741 mmHg 87%
    23:00 +19°C° 0.3 mm 3 mps 741 mmHg 89%
    Show more